Sterling, IL

6:05 AM CST on November 17, 2019 (GMT -0600)
Whiteside County-Bittorf

Weather History for KSQI - July, 2019

Change the Weather History Date:

Saturday, July 27, 2019

  Actual Average Record
Temperature  
Mean Temperature 78 °F -  
Max Temperature 88 °F 81 °F 91 °F (1997)
Min Temperature 69 °F 60 °F 50 °F (2004)
Cooling Degree Days 14    
Growing Degree Days 28 (Base 50)    
Moisture  
Dew Point 67 °F    
Average Humidity 68    
Maximum Humidity 87    
Minimum Humidity 51    
Precipitation  
Precipitation 0.00 in - - ()
Sea Level Pressure  
Sea Level Pressure 29.69 in    
Wind  
Wind Speed 6 mph (WSW)    
Max Wind Speed 16 mph    
Max Gust Speed 24 mph    
Visibility 10 miles    
Events      
Averages and records for this station are not official NWS values.
T = Trace of Precipitation, MM = Missing Value Source: NWS Daily Summary

Daily Weather History Graph

Daily Weather History Graph

Search for Another Location

Airport or City:

Astronomy

Jul. 27, 2019 Rise Set
Actual Time 5:47 AM CDT 8:22 PM CDT
Civil Twilight 5:15 AM CDT 8:53 PM CDT
Nautical Twilight 4:35 AM CDT 9:33 PM CDT
Astronomical Twilight 3:50 AM CDT 10:18 PM CDT
Moon 1:34 AM CDT (7/27) 4:13 PM CDT (7/27)
Length of Visible Light 15h 38m
Length of Day
14h 34m
Waning Crescent, 24% of the Moon is Illuminated
Jul 27
Waning Crescent
Jul 31
New
Aug 7
First Quarter
Aug 15
Full
Aug 23
Last Quarter

Hourly Weather History & Observations

Time (CDT) Temp. Heat Index Dew Point Humidity Pressure Visibility Wind Dir Wind Speed Gust Speed Precip Events Conditions
12:56 AM 73.9 °F - 66.0 °F 76% 29.72 in 10.0 mi Variable 4.6 mph - N/A   Mostly Cloudy
1:56 AM 73.0 °F - 64.9 °F 76% 29.72 in 10.0 mi Variable 4.6 mph - N/A   Mostly Cloudy
2:56 AM 73.0 °F - 64.9 °F 76% 29.72 in 10.0 mi Calm Calm - N/A   Overcast
3:56 AM 71.1 °F - 64.9 °F 81% 29.71 in 10.0 mi Variable 3.5 mph - N/A   Mostly Cloudy
4:56 AM 69.1 °F - 64.9 °F 87% 29.70 in 10.0 mi Variable 3.5 mph - N/A   Partly Cloudy
5:56 AM 70.0 °F - 64.0 °F 81% 29.71 in 10.0 mi Variable 3.5 mph - N/A   Overcast
6:56 AM 70.0 °F - 64.0 °F 81% 29.71 in 10.0 mi Variable 4.6 mph - N/A   Mostly Cloudy
7:56 AM 73.0 °F - 64.9 °F 76% 29.72 in 10.0 mi Variable 4.6 mph - N/A   Clear
8:56 AM 77.0 °F - 66.0 °F 69% 29.72 in 10.0 mi WSW 6.9 mph - N/A   Clear
9:56 AM 82.0 °F 84.5 °F 66.9 °F 60% 29.70 in 10.0 mi WSW 9.2 mph - N/A   Clear
10:56 AM 82.0 °F 84.5 °F 66.9 °F 60% 29.71 in 10.0 mi WSW 8.1 mph - N/A   Partly Cloudy
11:56 AM 82.0 °F 84.1 °F 66.0 °F 58% 29.69 in 10.0 mi WSW 9.2 mph - N/A   Scattered Clouds
12:56 PM 86.0 °F 89.4 °F 68.0 °F 55% - 10.0 mi North - - 0.00 in   Clear
1:56 PM 86.0 °F 89.4 °F 68.0 °F 55% 29.67 in 10.0 mi WSW 13.8 mph 20.7 mph N/A   Clear
2:56 PM 88.0 °F 91.4 °F 68.0 °F 51% 29.67 in 10.0 mi WSW 15.0 mph 24.2 mph 0.00 in   Clear
3:56 PM 87.1 °F 89.9 °F 66.9 °F 51% 29.65 in 10.0 mi WSW 16.1 mph 21.9 mph N/A   Clear
4:56 PM 86.0 °F 89.4 °F 68.0 °F 55% 29.65 in 10.0 mi WSW 15.0 mph 21.9 mph N/A   Clear
5:56 PM 84.0 °F 87.8 °F 69.1 °F 61% 29.65 in 10.0 mi WSW 10.4 mph - N/A   Clear
6:56 PM 81.0 °F 84.1 °F 69.1 °F 67% 29.65 in 10.0 mi Variable 3.5 mph - N/A   Clear
7:56 PM 80.1 °F 82.9 °F 69.1 °F 69% 29.65 in 10.0 mi Variable 3.5 mph - N/A   Clear
8:56 PM 77.0 °F - 69.1 °F 76% 29.66 in 10.0 mi Variable 3.5 mph - N/A   Clear
9:56 PM 75.9 °F - 69.1 °F 79% 29.67 in 10.0 mi Calm Calm - N/A   Clear